Time,TemperatureF,DewpointF,PressureIn,WindDirection,WindDirectionDegrees,WindSpeedMPH,WindSpeedGustMPH,Humidity,HourlyPrecipIn,Conditions,Clouds,dailyrainin,SoftwareType,DateUTC
2013-03-11 00:06:00,45.4,36.0,30.06,WNW,299,0.0,1.0,69,0.00,,,0.00,weatherlink.com 1.10,2013-03-11 05:06:00,
2013-03-11 00:21:00,45.2,36.0,30.06,WNW,303,3.0,8.0,69,0.00,,,0.00,weatherlink.com 1.10,2013-03-11 05:21:00,
2013-03-11 00:36:00,45.7,35.0,30.07,WNW,298,6.0,10.0,66,0.00,,,0.00,weatherlink.com 1.10,2013-03-11 05:36:00,
2013-03-11 00:51:00,45.5,35.0,30.07,NW,312,0.0,4.0,67,0.00,,,0.00,weatherlink.com 1.10,2013-03-11 05:51:00,
2013-03-11 01:06:00,45.5,35.0,30.06,WNW,288,4.0,5.0,66,0.00,,,0.00,weatherlink.com 1.10,2013-03-11 06:06:00,
2013-03-11 01:51:00,45.1,33.0,30.07,NW,305,5.0,5.0,63,0.00,,,0.00,weatherlink.com 1.10,2013-03-11 06:51:00,
2013-03-11 02:07:00,44.8,33.0,30.06,WNW,302,0.0,5.0,64,0.00,,,0.00,weatherlink.com 1.10,2013-03-11 07:07:00,
2013-03-11 02:21:00,44.4,33.0,30.05,WNW,289,4.0,4.0,65,0.00,,,0.00,weatherlink.com 1.10,2013-03-11 07:21:00,
2013-03-11 02:36:00,44.3,34.0,30.05,WNW,292,0.0,3.0,66,0.00,,,0.00,weatherlink.com 1.10,2013-03-11 07:36:00,
2013-03-11 02:51:00,44.1,34.0,30.05,WNW,289,0.0,1.0,67,0.00,,,0.00,weatherlink.com 1.10,2013-03-11 07:51:00,
2013-03-11 03:06:00,43.7,34.0,30.04,WNW,289,1.0,2.0,69,0.00,,,0.00,weatherlink.com 1.10,2013-03-11 08:06:00,
2013-03-11 03:21:00,43.6,34.0,30.04,WNW,289,0.0,0.0,69,0.00,,,0.00,weatherlink.com 1.10,2013-03-11 08:21:00,
2013-03-11 03:36:00,43.4,35.0,30.03,WNW,289,0.0,0.0,71,0.00,,,0.00,weatherlink.com 1.10,2013-03-11 08:36:00,
2013-03-11 03:52:00,43.0,34.0,30.02,WNW,289,0.0,3.0,71,0.00,,,0.00,weatherlink.com 1.10,2013-03-11 08:52:00,
2013-03-11 04:07:00,42.8,35.0,30.00,WNW,296,0.0,3.0,74,0.00,,,0.00,weatherlink.com 1.10,2013-03-11 09:07:00,
2013-03-11 04:22:00,43.1,34.0,30.01,WNW,292,1.0,4.0,71,0.00,,,0.00,weatherlink.com 1.10,2013-03-11 09:22:00,
2013-03-11 04:37:00,43.1,34.0,30.00,WNW,293,3.0,6.0,71,0.00,,,0.00,weatherlink.com 1.10,2013-03-11 09:37:00,
2013-03-11 05:07:00,43.3,33.0,30.00,WNW,289,0.0,8.0,67,0.00,,,0.00,weatherlink.com 1.10,2013-03-11 10:07:00,
2013-03-11 05:22:00,43.2,33.0,30.02,WNW,291,0.0,3.0,68,0.00,,,0.00,weatherlink.com 1.10,2013-03-11 10:22:00,
2013-03-11 05:37:00,42.8,33.0,30.02,WNW,291,2.0,4.0,69,0.00,,,0.00,weatherlink.com 1.10,2013-03-11 10:37:00,
2013-03-11 05:52:00,42.7,34.0,30.04,WNW,291,0.0,3.0,70,0.00,,,0.00,weatherlink.com 1.10,2013-03-11 10:52:00,
2013-03-11 06:07:00,42.5,33.0,30.04,WNW,290,0.0,5.0,69,0.00,,,0.00,weatherlink.com 1.10,2013-03-11 11:07:00,
2013-03-11 06:22:00,42.3,34.0,30.06,WNW,288,0.0,3.0,71,0.00,,,0.00,weatherlink.com 1.10,2013-03-11 11:22:00,
2013-03-11 06:37:00,41.9,34.0,30.07,WNW,288,0.0,0.0,73,0.00,,,0.00,weatherlink.com 1.10,2013-03-11 11:37:00,
2013-03-11 06:52:00,41.3,34.0,30.06,WNW,288,0.0,0.0,75,0.00,,,0.00,weatherlink.com 1.10,2013-03-11 11:52:00,
2013-03-11 07:07:00,40.9,35.0,30.07,WNW,288,0.0,1.0,78,0.00,,,0.00,weatherlink.com 1.10,2013-03-11 12:07:00,
2013-03-11 07:22:00,40.6,34.0,30.07,WNW,288,0.0,1.0,77,0.00,,,0.00,weatherlink.com 1.10,2013-03-11 12:22:00,
2013-03-11 08:07:00,39.3,32.0,30.08,WNW,288,0.0,2.0,76,0.00,,,0.00,weatherlink.com 1.10,2013-03-11 13:07:00,
2013-03-11 08:22:00,39.4,32.0,30.08,WNW,288,0.0,3.0,75,0.00,,,0.00,weatherlink.com 1.10,2013-03-11 13:22:00,
2013-03-11 08:37:00,40.1,32.0,30.08,WNW,303,2.0,5.0,73,0.00,,,0.00,weatherlink.com 1.10,2013-03-11 13:37:00,
2013-03-11 08:52:00,41.1,32.0,30.09,WSW,255,0.0,6.0,69,0.00,,,0.00,weatherlink.com 1.10,2013-03-11 13:52:00,
2013-03-11 09:07:00,41.8,32.0,30.10,WNW,300,4.0,6.0,67,0.00,,,0.00,weatherlink.com 1.10,2013-03-11 14:07:00,
2013-03-11 09:22:00,42.4,30.0,30.11,West,263,2.0,11.0,63,0.00,,,0.00,weatherlink.com 1.10,2013-03-11 14:22:00,
2013-03-11 09:37:00,43.3,30.0,30.11,WNW,293,3.0,9.0,61,0.00,,,0.00,weatherlink.com 1.10,2013-03-11 14:37:00,
2013-03-11 09:52:00,43.9,30.0,30.11,WNW,299,1.0,8.0,59,0.00,,,0.00,weatherlink.com 1.10,2013-03-11 14:52:00,
2013-03-11 10:07:00,45.0,31.0,30.10,NNW,330,5.0,8.0,59,0.00,,,0.00,weatherlink.com 1.10,2013-03-11 15:07:00,
2013-03-11 10:22:00,46.2,32.0,30.11,WSW,245,6.0,11.0,58,0.00,,,0.00,weatherlink.com 1.10,2013-03-11 15:22:00,
2013-03-11 10:37:00,46.8,31.0,30.10,North,350,1.0,9.0,55,0.00,,,0.00,weatherlink.com 1.10,2013-03-11 15:37:00,
2013-03-11 10:52:00,46.9,30.0,30.11,NNE,31,2.0,13.0,52,0.00,,,0.00,weatherlink.com 1.10,2013-03-11 15:52:00,
2013-03-11 11:07:00,47.5,30.0,30.10,North,350,3.0,13.0,52,0.00,,,0.00,weatherlink.com 1.10,2013-03-11 16:07:00,
2013-03-11 11:22:00,48.9,30.0,30.10,NNE,26,2.0,12.0,49,0.00,,,0.00,weatherlink.com 1.10,2013-03-11 16:22:00,
2013-03-11 11:37:00,49.8,32.0,30.10,WNW,289,2.0,9.0,50,0.00,,,0.00,weatherlink.com 1.10,2013-03-11 16:37:00,
2013-03-11 11:52:00,50.4,31.0,30.09,NW,326,5.0,9.0,48,0.00,,,0.00,weatherlink.com 1.10,2013-03-11 16:52:00,
2013-03-11 12:08:00,51.2,33.0,30.09,NNW,330,4.0,11.0,50,0.00,,,0.00,weatherlink.com 1.10,2013-03-11 17:08:00,
2013-03-11 12:23:00,51.4,31.0,30.08,NNW,336,5.0,10.0,46,0.00,,,0.00,weatherlink.com 1.10,2013-03-11 17:23:00,
2013-03-11 12:38:00,51.4,29.0,30.08,West,271,2.0,15.0,43,0.00,,,0.00,weatherlink.com 1.10,2013-03-11 17:38:00,
2013-03-11 12:53:00,51.6,31.0,30.07,WNW,287,1.0,14.0,45,0.00,,,0.00,weatherlink.com 1.10,2013-03-11 17:53:00,
2013-03-11 13:08:00,52.9,31.0,30.06,West,269,1.0,9.0,43,0.00,,,0.00,weatherlink.com 1.10,2013-03-11 18:08:00,
2013-03-11 13:23:00,53.4,31.0,30.06,WSW,239,9.0,10.0,42,0.00,,,0.00,weatherlink.com 1.10,2013-03-11 18:23:00,
2013-03-11 13:38:00,54.0,31.0,30.05,NW,304,0.0,9.0,41,0.00,,,0.00,weatherlink.com 1.10,2013-03-11 18:38:00,
2013-03-11 13:53:00,54.0,31.0,30.04,NW,307,9.0,11.0,41,0.00,,,0.00,weatherlink.com 1.10,2013-03-11 18:53:00,
2013-03-11 14:08:00,54.3,31.0,30.03,NW,317,9.0,14.0,41,0.00,,,0.00,weatherlink.com 1.10,2013-03-11 19:08:00,
2013-03-11 14:23:00,55.3,32.0,30.02,WSW,255,0.0,12.0,41,0.00,,,0.00,weatherlink.com 1.10,2013-03-11 19:23:00,
2013-03-11 14:38:00,55.3,30.0,30.02,NNW,336,6.0,16.0,38,0.00,,,0.00,weatherlink.com 1.10,2013-03-11 19:38:00,
2013-03-11 14:53:00,56.9,32.0,30.01,West,268,1.0,9.0,39,0.00,,,0.00,weatherlink.com 1.10,2013-03-11 19:53:00,
2013-03-11 15:08:00,57.1,30.0,30.01,WNW,295,3.0,12.0,36,0.00,,,0.00,weatherlink.com 1.10,2013-03-11 20:08:00,
2013-03-11 15:23:00,57.3,30.0,30.00,NNW,333,3.0,15.0,36,0.00,,,0.00,weatherlink.com 1.10,2013-03-11 20:23:00,
2013-03-11 15:38:00,58.0,30.0,29.99,NW,316,6.0,16.0,35,0.00,,,0.00,weatherlink.com 1.10,2013-03-11 20:38:00,
2013-03-11 15:53:00,58.1,30.0,29.99,ENE,66,0.0,10.0,35,0.00,,,0.00,weatherlink.com 1.10,2013-03-11 20:53:00,
2013-03-11 16:08:00,58.2,30.0,29.99,WNW,292,7.0,15.0,34,0.00,,,0.00,weatherlink.com 1.10,2013-03-11 21:08:00,
2013-03-11 16:23:00,58.9,31.0,29.99,West,275,8.0,14.0,35,0.00,,,0.00,weatherlink.com 1.10,2013-03-11 21:23:00,
2013-03-11 16:38:00,58.5,30.0,29.98,WNW,293,8.0,10.0,34,0.00,,,0.00,weatherlink.com 1.10,2013-03-11 21:38:00,
2013-03-11 16:53:00,58.6,32.0,29.98,NNE,26,1.0,11.0,36,0.00,,,0.00,weatherlink.com 1.10,2013-03-11 21:53:00,
2013-03-11 17:08:00,58.6,31.0,29.98,NW,322,5.0,14.0,35,0.00,,,0.00,weatherlink.com 1.10,2013-03-11 22:08:00,
2013-03-11 17:23:00,58.4,29.0,29.99,WNW,303,6.0,13.0,33,0.00,,,0.00,weatherlink.com 1.10,2013-03-11 22:23:00,
2013-03-11 17:38:00,57.9,28.0,29.98,NW,309,2.0,12.0,32,0.00,,,0.00,weatherlink.com 1.10,2013-03-11 22:38:00,
2013-03-11 17:53:00,57.7,29.0,29.98,North,3,2.0,9.0,33,0.00,,,0.00,weatherlink.com 1.10,2013-03-11 22:53:00,
2013-03-11 18:08:00,56.5,27.0,29.99,West,261,0.0,14.0,32,0.00,,,0.00,weatherlink.com 1.10,2013-03-11 23:08:00,
2013-03-11 18:23:00,56.1,28.0,29.99,WNW,294,3.0,8.0,34,0.00,,,0.00,weatherlink.com 1.10,2013-03-11 23:23:00,
2013-03-11 18:38:00,55.6,29.0,30.00,NW,305,4.0,7.0,36,0.00,,,0.00,weatherlink.com 1.10,2013-03-11 23:38:00,
2013-03-11 18:53:00,54.9,28.0,30.00,WNW,283,0.0,5.0,35,0.00,,,0.00,weatherlink.com 1.10,2013-03-11 23:53:00,
2013-03-11 19:08:00,54.1,28.0,30.00,WNW,293,0.0,7.0,37,0.00,,,0.00,weatherlink.com 1.10,2013-03-12 00:08:00,
2013-03-11 19:23:00,52.6,29.0,30.02,WNW,294,0.0,3.0,40,0.00,,,0.00,weatherlink.com 1.10,2013-03-12 00:23:00,
2013-03-11 19:38:00,51.4,29.0,30.02,WNW,294,0.0,1.0,43,0.00,,,0.00,weatherlink.com 1.10,2013-03-12 00:38:00,
2013-03-11 19:53:00,50.0,31.0,30.02,WNW,294,0.0,0.0,48,0.00,,,0.00,weatherlink.com 1.10,2013-03-12 00:53:00,
2013-03-11 20:08:00,47.8,35.0,30.03,WNW,293,0.0,1.0,62,0.00,,,0.00,weatherlink.com 1.10,2013-03-12 01:08:00,
2013-03-11 20:23:00,46.6,36.0,30.04,WNW,293,0.0,1.0,66,0.00,,,0.00,weatherlink.com 1.10,2013-03-12 01:23:00,
2013-03-11 20:38:00,45.5,36.0,30.04,WNW,294,0.0,1.0,69,0.00,,,0.00,weatherlink.com 1.10,2013-03-12 01:38:00,
2013-03-11 20:53:00,44.9,36.0,30.05,WNW,294,0.0,1.0,70,0.00,,,0.00,weatherlink.com 1.10,2013-03-12 01:53:00,
2013-03-11 21:08:00,43.9,35.0,30.05,WNW,294,0.0,0.0,71,0.00,,,0.00,weatherlink.com 1.10,2013-03-12 02:08:00,
2013-03-11 21:23:00,43.2,35.0,30.05,WNW,294,0.0,0.0,74,0.00,,,0.00,weatherlink.com 1.10,2013-03-12 02:23:00,
2013-03-11 21:38:00,42.5,35.0,30.06,WNW,293,0.0,0.0,74,0.00,,,0.00,weatherlink.com 1.10,2013-03-12 02:38:00,
2013-03-11 21:53:00,41.9,35.0,30.06,WNW,293,0.0,0.0,75,0.00,,,0.00,weatherlink.com 1.10,2013-03-12 02:53:00,
2013-03-11 22:08:00,41.5,35.0,30.07,WNW,293,0.0,0.0,77,0.00,,,0.00,weatherlink.com 1.10,2013-03-12 03:08:00,
2013-03-11 22:23:00,40.9,34.0,30.07,WNW,294,0.0,0.0,77,0.00,,,0.00,weatherlink.com 1.10,2013-03-12 03:23:00,
2013-03-11 22:38:00,40.2,34.0,30.07,WNW,294,0.0,0.0,77,0.00,,,0.00,weatherlink.com 1.10,2013-03-12 03:38:00,
2013-03-11 22:53:00,39.6,34.0,30.07,WNW,294,0.0,0.0,80,0.00,,,0.00,weatherlink.com 1.10,2013-03-12 03:53:00,
2013-03-11 23:08:00,39.2,34.0,30.08,WNW,294,0.0,0.0,81,0.00,,,0.00,weatherlink.com 1.10,2013-03-12 04:08:00,
2013-03-11 23:23:00,38.7,34.0,30.08,WNW,294,0.0,0.0,82,0.00,,,0.00,weatherlink.com 1.10,2013-03-12 04:23:00,
2013-03-11 23:38:00,38.2,34.0,30.09,WNW,294,0.0,0.0,83,0.00,,,0.00,weatherlink.com 1.10,2013-03-12 04:38:00,
2013-03-11 23:53:00,38.0,33.0,30.09,WNW,294,0.0,0.0,83,0.00,,,0.00,weatherlink.com 1.10,2013-03-12 04:53:00,